FENGYUN 1C DEB, 31843

Orbit data source: Space-Track

FENGYUN 1C DEB, 31843 is space debris in SSO originally from a launch on Mon, 10 May 1999 UTC launched from the Taiyaun Space Center, China (TSC). Fengyun 1C debris stems from the Chinese weather satellite Fengyun-1C, which was intentionally destroyed by a Chinese anti-satellite missile in 2007. This event dramatically increased the amount of space debris, with thousands of trackable fragments posing hazards to satellites and human spaceflight. The Fengyun 1C debris cloud has become a focal point in discussions about space sustainability and the need for international regulations to prevent the creation of new debris.

Loading next visibility...
Identifier
31843, 1999-025CJH
Orbit
SSO
Country
Flag of CNCN / PRC
Related business
Manufacturer
Unknown
Mission
Spacecraft
Bus & Motor
Unknown
Mass
Unknown
Launch date (UTC)
1999-05-10 (27 years ago)
Launch vehicle
Unknown
Launch site
Taiyaun Space Center, China (TSC)
Object type
Payload
Rocket body
Debris
Shape & HBR
Unknown shape, 0.1 m
Radar Cross Section
Small (<0.1 m²)

Expand to show TLE details & history
Last TLE update: 13 hours ago

TLE from 13 hours ago
0 FENGYUN 1C DEB
1 31843U 99025CJH 26236.59096277  .00002533  00000-0  15746-2 0  9996
2 31843  99.2910 161.0010 0631453  84.1333 283.1373 13.36083067680978
Epoch: 2026-08-24T14:10Z
TLE epoch observation values (Epoch: 2026-08-24T14:10:59.183Z)
Latitude
-0.00002°
Longitude
-24.61606°
Altitude
1,047.929 km
Speed
7.366 km/s
True Right ascension
10h 44m 00s
True Declination
0° 00' 00"
Sunlit
Object was in daylight at epoch
Visualization orbit readout
Latitude
Unknown
Longitude
Unknown
Altitude
Unknown
Speed
Unknown
Apparent Right ascension
Unknown
Apparent Declination
Unknown
Sunlit
N/A
Visualization observer readout
Local Sidereal Time
18:19:19
Azimuth
Unknown
Elevation
Unknown
Doppler factor
Unknown
Orbital elements
Apogee altitude
1,594.736 km
Perigee altitude
647.642 km
Semi-major axis
7,499.326 km
Eccentricity
0.06315
Inclination
99.291°
RAAN
161.001°
Arg. of periapsis
84.1333°
True anomaly
275.98082°
Mean anomaly
283.1373°
Eccentric anomaly
279.56969°
Mean motion
3.34203 °/min
Orbital period
107.72 mins
BSTAR
0.0015746
Loading maneuver chart data...
Computing Atmospheric mass density...

Documentation

Showing up to 5 results
|